EW9980 Weather Reports


time (UTC)temp
F
wind
direction
speed
knots
gust
knots
rain 1hr
in
rain 24hr
in
rain mn
in
humidity
%
barometer
mb
20260906231544 74 156 7.0 13.0 0.00 0.00 0.00 15 1006.7
20260906230048 75 215 7.0 13.0 0.00 0.00 0.00 15 1006.7
20260906224544 76 233 6.1 10.4 0.00 0.00 0.00 15 1006.8
20260906223041 76 193 7.0 13.0 0.00 0.00 0.00 14 1007.0
20260906221541 75 192 7.8 13.0 0.00 0.00 0.00 13 1006.9
20260906220039 75 209 13.9 20.0 0.00 0.00 0.00 13 1007.1
20260906214536 75 184 9.6 19.1 0.00 0.00 0.00 14 1007.4
20260906213035 76 200 7.0 13.9 0.00 0.00 0.00 15 1007.5
20260906211534 75 200 6.1 17.4 0.00 0.00 0.00 14 1007.6
20260906210033 75 160 8.7 15.6 0.00 0.00 0.00 12 1007.4
20260906204533 75 224 7.0 15.6 0.00 0.00 0.00 14 1007.7
20260906203031 75 259 9.6 17.4 0.00 0.00 0.00 13 1007.7
20260906201529 75 163 7.0 13.0 0.00 0.00 0.00 15 1007.9
20260906200027 74 278 7.0 14.8 0.00 0.00 0.00 12 1008.1
20260906194525 74 148 6.1 13.9 0.00 0.00 0.00 12 1008.3
20260906193023 74 189 9.6 17.4 0.00 0.00 0.00 12 1008.5
20260906191521 73 238 6.1 12.2 0.00 0.00 0.00 17 1008.4
20260906190018 72 200 7.0 12.2 0.00 0.00 0.00 18 1008.9
20260906184516 72 165 5.2 9.6 0.00 0.00 0.00 21 1009.3
20260906183018 71 205 6.1 12.2 0.00 0.00 0.00 21 1009.6
20260906181509 71 212 5.2 9.6 0.00 0.00 0.00 21 1009.8
20260906180006 69 290 2.6 7.8 0.00 0.00 0.00 25 1010.0
20260906174503 68 211 1.7 5.2 0.00 0.00 0.00 28 1010.3
20260906173110 67 281 0.9 5.2 0.00 0.00 0.00 28 1010.4
20260906171559 66 314 2.6 5.2 0.00 0.00 0.00 26 1010.7
20260906170053 64 325 0.0 2.6 0.00 0.00 0.00 34 1010.8
20260906164549 62 349 0.0 2.6 0.00 0.00 0.00 42 1010.9
20260906163046 61 306 0.0 4.3 0.00 0.00 0.00 42 1011.1
20260906161541 59 103 0.0 2.6 0.00 0.00 0.00 51 1011.4
20260906160037 56 214 0.0 2.6 0.00 0.00 0.00 56 1011.7
20260906154535 55 359 0.0 3.5 0.00 0.00 0.00 57 1011.9
20260906153030 52 130 0.0 1.7 0.00 0.00 0.00 63 1012.2
20260906151526 50 284 0.0 0.0 0.00 0.00 0.00 66 1012.3
20260906150022 47 285 0.0 1.7 0.00 0.00 0.00 69 1012.5
20260906144521 45 303 0.0 1.7 0.00 0.00 0.00 72 1012.7
20260906143016 43 255 0.9 1.7 0.00 0.00 0.00 73 1012.8
20260906141523 42 110 0.0 0.9 0.00 0.00 0.00 74 1012.7
20260906140014 37 110 0.0 1.7 0.00 0.00 0.00 84 1012.8
20260906134511 33 112 0.0 1.7 0.00 0.00 0.00 84 1012.8
20260906133010 30 123 0.0 2.6 0.00 0.00 0.00 81 1012.9
20260906131507 30 103 0.0 0.9 0.00 0.00 0.00 75 1012.6
20260906130005 32 103 0.0 0.9 0.00 0.00 0.00 84 1012.4
20260906124504 31 104 0.0 0.9 0.00 0.00 0.00 78 1012.4
20260906123104 32 104 0.0 0.9 0.00 0.00 0.00 82 1012.1
20260906121608 31 103 0.0 0.0 0.00 0.00 0.00 76 1012.0
20260906120106 32 103 0.0 1.7 0.00 0.00 0.00 72 1011.8
20260906114554 34 153 0.0 1.7 0.00 0.00 0.00 75 1011.6
20260906113056 33 92 0.0 1.7 0.00 0.00 0.00 71 1011.5
20260906111550 34 101 0.0 1.7 0.00 0.00 0.00 69 1011.5
20260906110046 36 102 0.0 1.7 0.00 0.00 0.00 66 1011.5
20260906104544 37 93 0.0 0.9 0.00 0.00 0.00 69 1011.3
20260906103052 36 105 0.0 1.7 0.00 0.00 0.00 71 1011.4
20260906101541 37 112 0.0 1.7 0.00 0.00 0.00 68 1011.3
20260906100041 37 98 0.0 0.9 0.00 0.00 0.00 70 1011.2
20260906094537 37 98 0.0 0.0 0.00 0.00 0.00 68 1011.2
20260906093041 37 98 0.0 0.9 0.00 0.00 0.00 68 1011.1
20260906091533 39 98 0.0 0.9 0.00 0.00 0.00 64 1011.2
20260906090033 40 333 0.0 1.7 0.00 0.00 0.00 66 1011.2
20260906084531 39 96 0.0 0.9 0.00 0.00 0.00 67 1011.2
20260906083030 38 96 0.0 2.6 0.00 0.00 0.00 68 1011.4
20260906081528 41 117 0.0 0.9 0.00 0.00 0.00 64 1011.3
20260906080029 40 117 0.0 0.9 0.00 0.00 0.00 65 1011.4
20260906074524 39 117 0.0 0.9 0.00 0.00 0.00 63 1011.9
20260906073022 41 75 0.0 0.9 0.00 0.00 0.00 65 1011.9
20260906071521 41 111 0.0 1.7 0.00 0.00 0.00 64 1012.0
20260906070019 41 214 0.0 2.6 0.00 0.00 0.00 62 1011.9
20260906064524 41 264 0.0 0.0 0.00 0.00 0.00 62 1012.0
20260906063013 42 63 0.0 0.0 0.00 0.00 0.00 61 1012.0
20260906061520 43 258 0.0 0.0 0.00 0.00 0.00 57 1012.2
20260906060008 44 13 0.0 0.0 0.00 0.00 0.00 60 1012.1
20260906054522 45 342 0.0 0.0 0.00 0.00 0.00 56 1012.1
20260906053007 47 105 0.0 0.0 0.00 0.00 0.00 55 1012.0
20260906051506 48 97 0.0 0.0 0.00 0.00 0.00 53 1012.0
20260906050006 47 97 0.0 0.0 0.00 0.00 0.00 55 1011.8
20260906044508 47 120 0.0 0.0 0.00 0.00 0.00 54 1011.8
20260906043018 48 112 0.0 0.0 0.00 0.00 0.00 54 1011.8
20260906041505 47 111 0.0 0.0 0.00 0.00 0.00 57 1011.6
20260906040005 48 111 0.0 0.0 0.00 0.00 0.00 56 1011.5
20260906034505 48 101 0.0 0.0 0.00 0.00 0.00 55 1011.4
20260906033004 50 137 0.0 0.0 0.00 0.00 0.00 55 1011.2
20260906031503 47 137 0.0 0.0 0.00 0.00 0.00 55 1011.0
20260906030003 52 115 0.0 0.0 0.00 0.00 0.00 50 1010.7
20260906024503 52 358 0.0 0.0 0.00 0.00 0.00 50 1010.5
20260906023001 56 358 0.0 0.0 0.00 0.00 0.00 45 1010.2
20260906021502 59 358 0.0 1.7 0.00 0.00 0.00 41 1010.0
20260906020001 62 345 0.0 1.7 0.00 0.00 0.00 38 1009.9
20260906014503 65 260 0.9 1.7 0.00 0.00 0.00 28 1009.9
20260906013100 69 252 0.9 3.5 0.00 0.00 0.00 25 1009.8
20260906011606 70 232 2.6 5.2 0.00 0.00 0.00 23 1009.7
20260906010059 72 253 3.5 6.1 0.00 0.00 0.00 21 1009.6
20260906004558 73 227 1.7 7.8 0.00 0.00 0.00 20 1009.6
20260906003057 73 207 3.5 7.8 0.00 0.00 0.00 20 1009.6
20260906001556 73 246 4.3 7.8 0.00 0.00 0.00 18 1009.7
20260906000053 73 217 4.3 7.8 0.00 0.00 0.00 18 1009.9
20260905234548 74 202 4.3 11.3 0.00 0.00 0.00 20 1010.0
20260905233045 74 210 7.8 12.2 0.00 0.00 0.00 19 1010.0